OneWeb SL0083

operational
NORAD ID: 45435 Int'l Des: 2020-020 Owner: ONEWEB Country: UK Constellation: oneweb
LEOCIRCULARPOLARONEWEB_TYPE

About OneWeb SL0083

Description loading...

Live Position

Loading 3D Globe...

Upcoming Passes

Altitude History

Altitude vs Time

uPlot chart will show altitude changes over time

Two-Line Element Set

1 45435U 20020M 25304.31827606 .00000341 00000-0 92689-3 0 9997
2 45435 87.8852 66.6269 0001681 100.2145 259.9173 13.11419749272675
Epoch: Oct 31, 2025 • Age: 5 hours

Current Status

Altitude 1232.0 km
Velocity 7.24 km/s
Sub-Earth Point -36.42°S, 22.08°E
Launch Date Mar 21, 2020
Age 5.6 years
Type internet

Technical Details

Classification Payload
Mass 148.00 kg
Dry Mass 140.00 kg
Total Mass 148.00 kg
Length 1.30 m
Diameter 1.00 m
Span 5.00 m
Shape Trapezoid+2 pan
Manufacturer ONEWUS
Bus Type ARROW
Phase Status In Orbit
Owner/State ONEWEB/UK

Large Constellations

Loading constellations...